Abilene, TX

11:40 AM CST on December 06, 2019 (GMT -0600)
Abilene Regional

Weather History for KABI - October, 2019

Change the Weather History Date:

Saturday, October 12, 2019

  Actual Average Record
Temperature  
Mean Temperature 50 °F 67 °F  
Max Temperature 67 °F 79 °F 99 °F (1979)
Min Temperature 33 °F 56 °F 33 °F (1977)
Degree Days  
Heating Degree Days 15 2  
Month to date heating degree days 29 20  
Since 1 July heating degree days 29 31  
Cooling Degree Days 0 4  
Month to date cooling degree days 125 64  
Year to date cooling degree days 2858 2335  
Moisture  
Dew Point 23 °F    
Average Humidity 47    
Maximum Humidity 82    
Minimum Humidity 12    
Precipitation  
Precipitation 0.00 in 0.10 in 3.72 in (1981)
Month to date precipitation 0.19 1.10  
Year to date precipitation 20.00 20.30  
Sea Level Pressure  
Sea Level Pressure 30.18 in    
Wind  
Wind Speed 7 mph (South)    
Max Wind Speed 15 mph    
Max Gust Speed 19 mph    
Visibility 10 miles    
Events      
T = Trace of Precipitation, MM = Missing Value Source: NWS Daily Summary

Daily Weather History Graph

Daily Weather History Graph

Search for Another Location

Airport or City:

Astronomy

Oct. 12, 2019 Rise Set
Actual Time 7:40 AM CDT 7:09 PM CDT
Civil Twilight 7:15 AM CDT 7:34 PM CDT
Nautical Twilight 6:47 AM CDT 8:02 PM CDT
Astronomical Twilight 6:18 AM CDT 8:31 PM CDT
Moon 6:59 PM CDT (10/12) 6:27 AM CDT (10/12)
Length of Visible Light 12h 18m
Length of Day
11h 29m
Waxing Gibbous, 99% of the Moon is Illuminated
Oct 12
Waxing Gibbous
Oct 13
Full
Oct 21
Last Quarter
Oct 27
New
Nov 4
First Quarter

Hourly Weather History & Observations

Time (CDT) Temp. Windchill Dew Point Humidity Pressure Visibility Wind Dir Wind Speed Gust Speed Precip Events Conditions
12:52 AM 41.0 °F - 27.0 °F 57% 30.32 in 10.0 mi Calm Calm - N/A   Clear
1:52 AM 39.9 °F 37.8 °F 28.0 °F 63% 30.31 in 10.0 mi SW 3.5 mph - N/A   Clear
2:52 AM 41.0 °F 39.0 °F 28.0 °F 60% 30.29 in 10.0 mi NW 3.5 mph - N/A   Clear
3:52 AM 37.0 °F 34.5 °F 28.9 °F 73% 30.29 in 10.0 mi South 3.5 mph - N/A   Clear
4:52 AM 35.1 °F 30.1 °F 30.0 °F 82% 30.29 in 10.0 mi South 5.8 mph - N/A   Clear
5:52 AM 34.0 °F 29.8 °F 28.9 °F 82% 30.29 in 10.0 mi South 4.6 mph - N/A   Clear
6:52 AM 34.0 °F 28.8 °F 27.0 °F 75% 30.29 in 10.0 mi South 5.8 mph - N/A   Clear
7:52 AM 34.0 °F 28.0 °F 28.9 °F 82% 30.29 in 10.0 mi South 6.9 mph - N/A   Clear
8:52 AM 41.0 °F 39.0 °F 30.0 °F 65% 30.29 in 10.0 mi South 3.5 mph - N/A   Clear
9:52 AM 50.0 °F - 28.0 °F 43% 30.28 in 10.0 mi SSW 5.8 mph - N/A   Clear
10:52 AM 55.9 °F - 19.9 °F 25% 30.28 in 10.0 mi SE 5.8 mph - N/A   Clear
11:52 AM 60.1 °F - 12.9 °F 16% 30.25 in 10.0 mi Variable 4.6 mph - N/A   Clear
12:52 PM 62.1 °F - 12.0 °F 14% 30.21 in 10.0 mi South 8.1 mph - N/A   Clear
1:52 PM 64.0 °F - 12.0 °F 13% 30.17 in 10.0 mi SSE 11.5 mph - N/A   Clear
2:52 PM 64.0 °F - 10.9 °F 13% 30.12 in 10.0 mi South 11.5 mph - N/A   Clear
3:52 PM 64.9 °F - 10.9 °F 12% 30.09 in 10.0 mi SSW 6.9 mph - N/A   Clear
4:52 PM 66.9 °F - 12.0 °F 12% 30.07 in 10.0 mi South 10.4 mph - N/A   Partly Cloudy
5:52 PM 66.9 °F - 15.1 °F 14% 30.05 in 10.0 mi South 9.2 mph - N/A   Clear
6:52 PM 63.0 °F - 21.0 °F 20% 30.04 in 10.0 mi South 9.2 mph - N/A   Clear
7:52 PM 59.0 °F - 26.1 °F 28% 30.04 in 10.0 mi South 5.8 mph - N/A   Clear
8:52 PM 57.0 °F - 28.9 °F 34% 30.03 in 10.0 mi SE 5.8 mph - N/A   Mostly Cloudy
9:52 PM 57.0 °F - 30.0 °F 36% 30.01 in 10.0 mi SSE 5.8 mph - N/A   Partly Cloudy
10:52 PM 57.9 °F - 28.9 °F 33% 29.99 in 10.0 mi SSE 9.2 mph - N/A   Partly Cloudy
11:52 PM 57.9 °F - 27.0 °F 31% 29.99 in 10.0 mi South 6.9 mph - N/A   Scattered Clouds